Regional Weather Roundup
Issued by NWS

Home | Current Version | Previous Version | Graphics & Text | Print | Product List | Glossary On
Versions: 1 2 3 4 5 6 7 8 9 10 11 12 13 14 15 16 17 18 19 20 21 22 23 24 25 26 27 28 29 30 31 32 33 34 35 36 37 38 39 40 41 42 43 44 45 46 47 48 49 50
000
ASUS43 KLMK 310602
RWRKY
KENTUCKY REGIONAL WEATHER ROUNDUP
NATIONAL WEATHER SERVICE LOUISVILLE KY
200 AM EDT TUE MAY 31 2016

NOTE "FAIR" INDICATES FEW OR NO CLOUDS BELOW 12,000 FEET
WITH NO SIGNIFICANT WEATHER AND/OR OBSTRUCTIONS TO VISIBILITY.

KYZ001>023-026-027-061>063-070>075-310700-
WESTERN AND SOUTH CENTRAL KENTUCKY

CITY           SKY/WX    TMP DP  RH WIND       PRES   REMARKS
PADUCAH        MOCLDY    67  62  84 CALM      29.95F
HENDERSON      MOCLDY    66  61  82 CALM      29.95F
OWENSBORO      CLOUDY    70  66  86 CALM      29.97S
HOPKINSVILLE   NOT AVBL
BOWLING GREEN  CLOUDY    66  62  87 CALM      29.97F
GLASGOW        NOT AVBL
$$

KYZ024-025-028>034-038-045-046-053-310700-
NORTH CENTRAL KENTUCKY

CITY           SKY/WX    TMP DP  RH WIND       PRES   REMARKS
LOUISVILLE/SDF PTCLDY    70  59  68 W3        29.98F
LOUISVILLE/LOU PTCLDY    69  60  73 CALM      29.99S
FORT KNOX      NOT AVBL
$$

KYZ035>037-039>044-047>052-055>060-089>105-310700-
NORTHEAST KENTUCKY

CITY           SKY/WX    TMP DP  RH WIND       PRES   REMARKS
LEXINGTON      CLEAR     67  60  78 CALM      30.00F
COVINGTON      MOCLDY    65  59  81 CALM      30.00S
FRANKFORT      CLOUDY    63  58  83 CALM      29.99S
$$

KYZ054-064>069-076>088-106>120-310700-
SOUTHEAST KENTUCKY

CITY           SKY/WX    TMP DP  RH WIND       PRES   REMARKS
JACKSON        CLEAR     69  59  70 CALM      30.01F
LONDON         CLEAR     64  60  87 CALM      30.01S
SOMERSET       NOT AVBL
MIDDLESBORO    NOT AVBL
MONTICELLO     CLEAR     61  60  97 NE8       30.02S
$$





USA.gov is the U.S. government's official web portal to all federal, state and local government web resources and services.